Regional Weather Roundup
Issued by NWS

Home | Current Version | Previous Version | Text Only | Print | Product List | Glossary On
Versions: 1 2 3 4 5 6 7 8 9 10 11 12 13 14 15 16 17 18 19 20 21 22 23 24 25 26 27 28 29 30 31 32 33 34 35 36 37 38 39 40 41 42 43 44 45 46 47 48 49 50
000
ASUS44 KBMX 220910
RWRAL

ALABAMA REGIONAL WEATHER ROUNDUP
NATIONAL WEATHER SERVICE BIRMINGHAM AL
400 AM CDT TUE JUL 22 2014

NOTE: "FAIR" INDICATES FEW OR NO CLOUDS BELOW 12,000 FEET
WITH NO SIGNIFICANT WEATHER AND/OR OBSTRUCTIONS TO VISIBILITY.

THE REMARK "TC" DENOTES TEMPERATURE IN DEGREES CELSIUS.

ALZ001>011-014-016>018-020-221000-
NORTH ALABAMA

CITY           SKY/WX    TMP DP  RH WIND       PRES   REMARKS
MUSCLE SHOALS  PTCLDY    71  69  93 CALM      30.06S FOG
HUNTSVILLE     CLOUDY    74  71  91 E3        30.06R
DECATUR        CLOUDY    73  72  96 E3        30.06S
HALEYVILLE     FAIR      70  70 100 CALM      30.08F
GADSDEN        CLOUDY    73  70  88 E3        30.06R
$$

ALZ012-013-022-023-030>036-040>044-221000-
WEST CENTRAL ALABAMA

CITY           SKY/WX    TMP DP  RH WIND       PRES   REMARKS
TUSCALOOSA     CLOUDY    76  72  87 E5        30.02F
$$

ALZ015-024>027-033>036-040>044-221000-
CENTRAL ALABAMA

CITY           SKY/WX    TMP DP  RH WIND       PRES   REMARKS
BIRMINGHAM     CLOUDY    74  70  87 CALM      30.06S
MONTGOMERY     PTCLDY    75  72  90 NE3       30.01F
SHELBY CO ARPT CLOUDY    75  72  90 SE3       30.03F
MAXWELL AFB    MOCLDY    75  75 100 SE2       30.01F
GREENVILLE     CLOUDY    75  72  90 SE6       30.01S
$$

ALZ019-021-028-029-037-038-045>048-221000-
EAST CENTRAL ALABAMA

CITY           SKY/WX    TMP DP  RH WIND       PRES   REMARKS
ANNISTON       CLOUDY    74  71  91 E5        30.07R
ALEXANDER CITY CLOUDY    77  72  83 CALM      30.06R
AUBURN         CLOUDY    70  68  94 NE5       30.09R
$$

ALZ051>064-221000-
SOUTHWEST ALABAMA

CITY           SKY/WX    TMP DP  RH WIND       PRES   REMARKS
MOBILE         MOCLDY    74  74 100 W5        29.98F FOG
BROOKLEY FIELD MOCLDY    76  75  97 W5        29.98S
EVERGREEN      CLOUDY    75  74  96 E5        30.01S FOG
$$

ALZ049-050-065>069-221000-
SOUTHEAST ALABAMA

CITY           SKY/WX    TMP DP  RH WIND       PRES   REMARKS
DOTHAN         CLOUDY    74  72  93 CALM      30.06F
OZARK          MOCLDY    73  72  95 E2        30.01F
TROY           CLOUDY    74  72  93 E6        30.03S
EUFAULA        CLOUDY    74  72  93 CALM      30.02R
$$


USA.gov is the U.S. government's official web portal to all federal, state and local government web resources and services.